Location: Brookfield Center
(41.2406°N, 80.5579°W)
Time: 20:58:18
(UTC+00:00)

Cosmos 2341 Rocket - Pass Details

Date: 18 January 2020
Orbit: 967 x 1005 km, 82.9° (Epoch: 17 February)

Event Time Altitude Azimuth Distance (km) Brightness Sun altitude
Rises 11:35:01 0° 348° (NNW) 3,701 6.8 -13.0°
Reaches altitude 10° 11:37:35 10° 345° (NNW) 2,743 6.1 -12.5°
Maximum altitude 11:43:43 59° 268° (W) 1,120 4.0 -11.4°
Drops below altitude 10° 11:49:46 10° 190° (S) 2,705 6.4 -10.3°
Sets 11:52:17 0° 187° (S) 3,645 7.2 -9.9°
